Powrót do katalogu

SATCOM 3 DEB

LostHEO
NORAD 31138·DEBRIS·🇺🇸 United States

Wystrzelony Dec 7, 1979 z Cape Canaveral Space Force Station

Loading…

Następne Przeloty (najbliższe 24 godziny)

TLE

NieaktualneSource: Space-Track

Epoka: Jul 11, 2026, 06:15 UTC

1 31138U 79101H   26192.26078140 -.00000044  00000-0  00000-0 0  9991
2 31138   9.2667  47.1300 4918860 177.1776  31.8474  1.83045993131087

Śledź SATCOM 3 DEB w czasie rzeczywistym z AllMySat

Download on the App Store